FW0019 Weather Reports


time (UTC)temp
F
wind
direction
speed
knots
gust
knots
rain 1hr
in
rain 24hr
in
rain mn
in
humidity
%
barometer
mb
20260831170056 74 161 8.7 13.9 0.00 0.00 0.00 29 879.5
20260831164555 74 133 6.1 13.9 0.00 0.00 0.00 32 879.5
20260831163048 73 136 8.7 14.8 0.00 0.00 0.00 25 879.4
20260831161546 73 156 5.2 13.0 0.00 0.00 0.00 23 879.3
20260831160043 73 111 7.0 13.9 0.00 0.00 0.00 22 879.4
20260831154546 72 129 7.8 13.9 0.00 0.00 0.00 19 879.2
20260831153051 71 124 7.0 11.3 0.00 0.00 0.00 19 879.2
20260831151544 71 107 6.1 12.2 0.00 0.00 0.00 19 879.1
20260831150033 69 109 7.0 13.0 0.00 0.00 0.00 20 879.0
20260831144530 68 98 7.0 10.4 0.00 0.00 0.00 20 878.8
20260831143035 67 141 6.1 9.6 0.00 0.00 0.00 21 878.8
20260831141528 66 107 5.2 11.3 0.00 0.00 0.00 22 878.6
20260831140034 66 116 5.2 8.7 0.00 0.00 0.00 22 878.5
20260831134527 65 125 6.1 8.7 0.00 0.00 0.00 22 878.3
20260831133025 65 111 3.5 7.8 0.00 0.00 0.00 22 878.1
20260831131522 65 102 5.2 9.6 0.00 0.00 0.00 21 878.0
20260831130020 65 87 4.3 8.7 0.00 0.00 0.00 21 877.9
20260831124518 66 99 7.0 12.2 0.00 0.00 0.00 20 877.7
20260831123019 66 115 6.1 9.6 0.00 0.00 0.00 20 877.7
20260831121522 66 105 7.0 13.0 0.00 0.00 0.00 19 877.6
20260831120032 66 96 6.1 11.3 0.00 0.00 0.00 19 877.5
20260831114512 66 76 6.1 10.4 0.00 0.00 0.00 19 877.6
20260831113010 66 116 6.1 13.0 0.00 0.00 0.00 18 877.6
20260831111510 66 115 7.0 13.9 0.00 0.00 0.00 18 877.8
20260831110005 66 114 4.3 12.2 0.00 0.00 0.00 19 877.8
20260831104504 67 101 6.1 12.2 0.00 0.00 0.00 18 877.9
20260831103002 67 98 4.3 10.4 0.00 0.00 0.00 18 877.9
20260831101501 67 109 5.2 10.4 0.00 0.00 0.00 19 877.9
20260831100059 67 77 6.1 9.6 0.00 0.00 0.00 19 877.9
20260831094606 67 87 5.2 9.6 0.00 0.00 0.00 18 878.0
20260831093141 67 105 5.2 11.3 0.00 0.00 0.00 18 878.0
20260831091552 67 129 6.1 11.3 0.00 0.00 0.00 18 878.1
20260831090050 67 140 5.2 10.4 0.00 0.00 0.00 17 878.1
20260831084630 68 81 5.2 13.9 0.00 0.00 0.00 16 878.3
20260831083050 68 88 5.2 11.3 0.00 0.00 0.00 16 878.3
20260831081544 68 73 5.2 9.6 0.00 0.00 0.00 15 878.5
20260831080100 68 113 5.2 11.3 0.00 0.00 0.00 16 878.5
20260831074548 68 67 5.2 9.6 0.00 0.00 0.00 16 878.6
20260831073042 68 98 5.2 9.6 0.00 0.00 0.00 16 878.6
20260831071544 68 119 4.3 8.7 0.00 0.00 0.00 16 878.7
20260831070036 69 98 4.3 8.7 0.00 0.00 0.00 19 878.8
20260831064543 69 86 2.6 10.4 0.00 0.00 0.00 24 878.9
20260831063036 69 83 4.3 9.6 0.00 0.00 0.00 25 878.7
20260831061529 69 111 4.3 11.3 0.00 0.00 0.00 25 878.7
20260831060031 70 77 5.2 11.3 0.00 0.00 0.00 26 878.6
20260831054527 69 76 6.1 10.4 0.00 0.00 0.00 28 878.6
20260831053027 69 105 3.5 8.7 0.00 0.00 0.00 30 878.6
20260831051535 69 82 4.3 11.3 0.00 0.00 0.00 30 878.6
20260831050026 69 105 4.3 12.2 0.00 0.00 0.00 29 878.6
20260831044525 69 93 6.1 9.6 0.00 0.00 0.00 29 878.6
20260831043023 69 94 4.3 9.6 0.00 0.00 0.00 31 878.6
20260831041522 69 75 5.2 11.3 0.00 0.00 0.00 32 878.7
20260831040026 69 81 5.2 9.6 0.00 0.00 0.00 33 878.5
20260831034520 69 109 3.5 8.7 0.00 0.00 0.00 35 878.4
20260831033021 68 94 3.5 9.6 0.00 0.00 0.00 38 878.2
20260831031517 67 108 2.6 7.8 0.00 0.00 0.00 47 878.1
20260831030015 67 94 3.5 8.7 0.00 0.00 0.00 57 878.0
20260831024514 68 83 6.1 8.7 0.00 0.00 0.00 52 878.0
20260831023013 69 89 4.3 7.8 0.00 0.00 0.00 46 878.0
20260831021517 70 94 4.3 8.7 0.00 0.00 0.00 49 878.0
20260831020013 71 59 3.5 8.7 0.00 0.00 0.00 44 877.9
20260831014514 73 113 7.0 13.9 0.00 0.00 0.00 40 877.9
20260831013012 74 132 6.1 13.9 0.00 0.00 0.00 36 877.8
20260831011516 75 109 7.8 15.6 0.00 0.00 0.00 34 877.8
20260831010010 76 122 9.6 16.5 0.00 0.00 0.00 34 877.8
20260831004509 77 132 8.7 15.6 0.00 0.00 0.00 32 877.7
20260831003009 78 115 7.8 15.6 0.00 0.00 0.00 30 877.9
20260831001508 79 80 8.7 21.7 0.00 0.00 0.00 29 878.0
20260831000007 80 136 7.8 15.6 0.00 0.00 0.00 29 878.1
20260830234507 81 67 6.1 19.1 0.00 0.00 0.00 29 878.1
20260830233005 81 114 7.0 20.0 0.00 0.00 0.00 28 878.2
20260830231504 81 178 9.6 13.9 0.00 0.00 0.00 28 878.1
20260830230003 81 157 7.8 15.6 0.00 0.00 0.00 29 878.3
20260830224502 82 123 9.6 14.8 0.00 0.00 0.00 28 878.4
20260830223002 82 154 7.8 15.6 0.00 0.00 0.00 29 878.5
20260830221501 82 132 10.4 15.6 0.00 0.00 0.00 30 878.6
20260830220001 82 146 6.1 14.8 0.00 0.00 0.00 33 878.8
20260830214601 82 156 10.4 20.0 0.00 0.00 0.00 34 878.9
20260830214502 83 96 8.7 16.5 0.00 0.00 0.00 34 878.9
20260830213101 83 133 7.8 19.1 0.00 0.00 0.00 34 879.0
20260830211559 83 144 9.6 16.5 0.00 0.00 0.00 34 879.1
20260830210106 83 164 7.8 15.6 0.00 0.00 0.00 35 879.2
20260830204559 83 142 10.4 19.1 0.00 0.00 0.00 34 879.3
20260830203059 83 164 7.0 14.8 0.00 0.00 0.00 35 879.4
20260830201557 83 117 7.0 15.6 0.00 0.00 0.00 36 879.6
20260830200057 83 94 6.1 16.5 0.00 0.00 0.00 36 879.6
20260830194602 83 136 7.0 13.9 0.00 0.00 0.00 35 879.6
20260830193055 84 107 5.2 15.6 0.00 0.00 0.00 33 879.8
20260830191553 83 96 9.6 17.4 0.00 0.00 0.00 31 879.8
20260830190054 83 148 8.7 14.8 0.00 0.00 0.00 31 879.9
20260830184551 82 105 7.0 13.0 0.00 0.00 0.00 31 880.1
20260830183051 83 135 6.1 12.2 0.00 0.00 0.00 32 880.1
20260830181548 82 162 4.3 11.3 0.00 0.00 0.00 31 880.1
20260830180046 82 43 3.5 9.6 0.00 0.00 0.00 30 880.1
20260830174544 81 128 6.1 11.3 0.00 0.00 0.00 30 880.0
20260830173042 81 134 5.2 12.2 0.00 0.00 0.00 31 879.8
20260830171544 81 126 5.2 10.4 0.00 0.00 0.00 31 879.8